Location: *
(38.9800°N, 16.0500°E)
Time: 21:27:08
(UTC+00:00)

H-2A R/B - Pass Details

Date: 07 April 2020
Orbit: 578 x 655 km, 98.5° (Epoch: 24 May)

Event Time Altitude Azimuth Distance (km) Brightness Sun altitude
Exits shadow 01:18:38 21° 30° (NNE) 1,343 4.3 -33.7°
Drops below altitude 10° 01:20:29 10° 10° (N) 1,926 5.2 -33.4°
Sets 01:22:50 0° 359° (N) 2,822 6.0 -33.1°
